Tracking 19832 objects as of 24-Aug-2019
HD Live streaming from Space Station
objects crossing your sky now

FENGYUN 1C DEB

Track FENGYUN 1C DEB now!
10-day predictions


NORAD ID: 37438
Int'l Code: 1999-025EHG
Perigee: 844.6 km
Apogee: 887.1 km
Inclination: 99.0 °
Period: 102.1 minutes
Semi major axis: 7236 km
RCS: 0.0099 m2 (small)
Launch date: May 10, 1999
Source: People's Republic of China (PRC)
Launch site: Taiyaun Space Center, China (TSC)

Note: This is SATELLITE DEBRIS
aabbcc
Your satellite tracking list
Your tracking list is empty




NASA's NSSDC Master Catalog

Two Line Element Set (TLE):
1 37438U 99025EHG 19231.31420031 +.00000206 +00000-0 +14114-3 0  9992
2 37438 098.9844 265.6292 0029357 270.8976 088.8830 14.10204180583042
Source of the keplerian elements: AFSPC